Flag for Argentina

Past Weather in Córdoba, Córdoba, Argentina — Yesterday and Last 2 Weeks

Now
64 °F

Light rain. Overcast.


Feels Like: 64 °F
Forecast: 72 / 54 °F
Wind: 17 mph from South

Location: Cordoba Aerodrome
Current Time: Oct 25, 2020 at 8:53:18 am
Latest Report: Oct 25, 2020 at 7:00 am
Visibility: 4 mi
Pressure29.78 "Hg
Humidity: 88%
Dew Point: 60 °F
Location of CórdobaLocation

Past Weather in Córdoba — Graph

°F

Córdoba Temperature Yesterday

Maximum temperature yesterday: 79 °F (at 12:00 pm)
Minimum temperature yesterday: 64 °F (at 7:00 am)
Average temperature yesterday: 71 °F

High & Low Weather Summary for the Past Weeks

 TemperatureHumidityPressure
High103 °F (Oct 18, 3:00 pm)100% (Oct 20, 6:00 pm)30.27 "Hg (Oct 20, 6:00 pm)
Low42 °F (Oct 12, 5:00 am)14% (Oct 11, 12:00 am)29.47 "Hg (Oct 18, 4:00 pm)
Average68 °F62%29.95 "Hg
* Reported Oct 10 7:00 am — Oct 25 7:00 am, Córdoba. Weather by CustomWeather, © 2020

Note: Actual official high and low records may vary slightly from our data, if they occured in-between our weather recording intervals... More about our weather records

Córdoba Weather History for the Previous 24 Hours

Scroll right to see more
 ConditionsComfort  
Time TempWeatherWind HumidityBarometerVisibility
7:00 am
Sun, Oct 25
64 °FLight rain. Overcast.17 mph88%29.78 "Hg4 mi
6:00 am71 °FOvercast.5 mph84%29.66 "Hg6 mi
5:00 am71 °FOvercast.8 mph90%29.62 "Hg6 mi
4:00 am71 °FOvercast.10 mph81%29.63 "Hg6 mi
3:00 am72 °FPassing clouds.12 mph85%29.65 "Hg6 mi
2:00 am73 °FPassing clouds.7 mph81%29.63 "Hg6 mi
1:00 am71 °FPassing clouds.7 mph86%29.64 "Hg6 mi
12:00 am69 °FPassing clouds.3 mph90%29.68 "Hg6 mi
11:00 pm
Sat, Oct 24
70 °FPassing clouds.5 mph90%29.69 "Hg6 mi
10:00 pm69 °FPassing clouds.6 mph88%29.70 "Hg6 mi
9:00 pm71 °FPassing clouds.5 mph84%29.71 "Hg6 mi
8:00 pm72 °FPassing clouds.6 mph82%29.70 "Hg6 mi
7:00 pm77 °FPassing clouds.7 mph71%29.70 "Hg6 mi
6:00 pm77 °FThunderstorms. Partly sunny.13 mph69%29.69 "Hg6 mi
5:00 pm72 °FThunderstorms. Overcast.14 mph81%29.73 "Hg5 mi
4:00 pm76 °FThunderstorms. Overcast.15 mph77%29.74 "Hg5 mi
3:00 pm78 °FOvercast.16 mph71%29.76 "Hg5 mi
2:00 pm78 °FOvercast.16 mph72%29.77 "Hg5 mi
1:00 pm77 °FOvercast.15 mph72%29.81 "Hg5 mi
12:00 pm79 °FOvercast.14 mph66%29.83 "Hg5 mi
11:00 am78 °FFog.12 mph70%29.85 "Hg4 mi
10:00 am74 °FFog.9 mph78%29.87 "Hg4 mi
9:00 am69 °FFog.3 mph91%29.89 "Hg2 mi
8:00 am68 °FFog.N/A95%29.88 "Hg2 mi
Weather by CustomWeather, © 2020

See weather overview